Regional Weather Roundup
Issued by NWS Grand Forks, ND

Home | Current Version | Previous Version | Text Only | Print | Product List | Glossary On
Versions: 1 2 3 4 5 6 7 8 9 10 11 12 13 14 15 16 17 18 19 20 21 22 23 24 25 26 27 28 29 30 31 32 33 34 35 36 37 38 39 40 41 42 43 44 45 46 47 48 49 50
000
ASUS43 KFGF 131210
RWRFGF
PRAIRIE TO PINES  WEATHER ROUNDUP
NATIONAL WEATHER SERVICE EASTERN NORTH DAKOTA/GRAND FORKS ND
600 AM CST WED DEC 13 2017

 **SATELLITE DATA USED TO AUGMENT SKY COVER AT AUTOMATED STATIONS**
 *****  WEATHER ACROSS EASTERN NORTH DAKOTA  *****

CITY           SKY/WX    TMP DP  RH WIND       PRES   REMARKS
GRAND FORKS    FLURRIES  28  25  88 N31G45    29.64R WCI  12
6HR MIN TEMP:  27; 6HR MAX TEMP:  39; 6HR PCP:  0.13;

GRAND FRKS AFB CLOUDY    30  27  88 N28G39    29.65R WCI  15
GRAND FRKS NWS   N/A     27 N/A N/A N12         N/A  WCI  16
DEVILS LAKE    CLOUDY    34  30  85 NW22      29.68R WCI  22
6HR MIN TEMP:  34; 6HR MAX TEMP:  38; 6HR PCP:  0.04;

FARGO          CLOUDY    31  28  89 N26G38    29.60R WCI  17
WAHPETON ARPT  CLOUDY    32  28  86 N33G48    29.59R WCI  17
$$

 ***** WEATHER ACROSS CENTRAL AND WESTERN NORTH DAKOTA  *****

CITY           SKY/WX    TMP DP  RH WIND       PRES   REMARKS
BISMARCK       FAIR      37  30  75 NW25G33   29.81R
6HR MIN TEMP:  37; 6HR MAX TEMP:  46; 6HR PCP: TRACE;

MINOT          FAIR      34  28  79 NW25G33   29.80R WCI  21
6HR MIN TEMP:  34; 6HR MAX TEMP:  41;

JAMESTOWN      CLOUDY    35  32  88 NW23G33   29.67R WCI  23
6HR MIN TEMP:  35; 6HR MAX TEMP:  42; 6HR PCP:  0.04;

MINOT AFB      FAIR      33  28  82 NW22G29   29.79R WCI  20
GARRISON         N/A     33  28  81 NW26G33   29.80R WCI  20
WILLISTON      FAIR      34  27  75 NW23G32   29.95R WCI  22
6HR MIN TEMP:  34; 6HR MAX TEMP:  42;

DICKINSON      FAIR      32  26  78 NW22      29.89R WCI  19
6HR MIN TEMP:  32; 6HR MAX TEMP:  44;

HETTINGER      FAIR      33  24  69 NW21G28   29.93R WCI  21
6HR MIN TEMP:  33; 6HR MAX TEMP:  47;

$$

 *****  OTHER AIRPORT OBSERVATIONS IN OUR AREA  *****

CITY           SKY/WX    TMP DP  RH WIND       PRES   REMARKS
WALHALLA       FAIR      28  28 100 N18       29.70R WCI  16
GRAFTON AIRPOR CLOUDY    27  25  93 N23G36    29.68R WCI  12
VALLEY CITY AR FLURRIES  36  36 100 NW25G32   29.65R
CANDO          CLOUDY    34  34 100 NW23G31   29.71R WCI  22
CAVALIER APRT  CLOUDY    27  23  86 N24G35    29.68R WCI  12
GWINNER          N/A     36  34  93 N21G33    29.62R
SHEYENNE NWR     N/A     35  32  90 N15       29.95S
ROLLA          CLOUDY    32  30  93 NW29G38   29.70R WCI  18
 ***** THE ABOVE OBSERVATIONS ARE NON NWS ARE NOT QUALITY
       CONTROLLED AND MAY MIS-REPORT RAIN FOR SNOW...
$$

  *****  WEATHER ACROSS NORTHERN MINNESOTA  *****

CITY           SKY/WX    TMP DP  RH WIND       PRES   REMARKS
FLAG ISLAND    LGT SNOW  12  10  92 NE10      29.58R WCI  -1
WARROAD        CLOUDY    16  12  86 N9        29.59R FOG     WCI   4
ROSEAU         CLOUDY    18  12  79 N9        29.59R HAZE    WCI   6
HALLOCK        CLOUDY    25  21  86 N23G30    29.64R FOG     WCI  10
THF RVR FALLS  LGT SNOW  21  19  93 N21G29    29.58R FOG     WCI   6
BAUDETTE       CLOUDY    15  13  91 N10       29.56R FOG     WCI   2
6HR MIN TEMP:  15; 6HR MAX TEMP:  16;

WASKISH        CLOUDY    16  14  93 N6        29.52R WCI   7
CROOKSTON      CLOUDY    25  23  93 N33G39    29.61R FOG     WCI   7
STEPHEN NDAWN    N/A     23  21  93 N17         N/A  WCI   9
GREENBUSH NDAW   N/A     19  18  93 NW17        N/A  WCI   4
$$
  *****  WEATHER ACROSS CENTRAL AND WEST MINNESOTA  *****

CITY           SKY/WX    TMP DP  RH WIND       PRES   REMARKS
FOSSTON        CLOUDY    21  19  93 NW18      29.54R WCI   6
BEMIDJI        CLOUDY    20  19  93 N7        29.48R WCI  11
6HR MIN TEMP:  19; 6HR MAX TEMP:  21;

PARK RAPIDS    CLOUDY    25  21  85 N6        29.43R WCI  18
6HR MIN TEMP:  21; 6HR MAX TEMP:  25; 6HR PCP:  0.02;

ELBOW LAKE     CLOUDY    32  30  92 W35G41    29.51R WCI  17
6HR MIN TEMP:  28; 6HR MAX TEMP:  34; 6HR PCP:  0.01;

WADENA         CLOUDY    30  30 100 NW18      29.44R WCI  18
DETROIT LAKES  CLOUDY    28  28 100 NW29G35   29.52R FOG     WCI  13
MOORHEAD       DRIZZLE   28  27  93 N23G29    29.60R WCI  14
FERGUS FALLS   CLOUDY    30  28  93 N38G51    29.55R WCI  14
MORRIS MN      CLOUDY    34  34 100 NW32G43   29.48R WCI  20
STAPLES        CLOUDY    21  21 100 NW7       29.43R WCI  13
$$
  *****  WEATHER ELSEWHERE ACROSS MINNESOTA  *****

CITY           SKY/WX    TMP DP  RH WIND       PRES   REMARKS
DULUTH         LGT SNOW  18  16  92 E10       29.41R VSB 3/4 WCI   6
6HR MIN TEMP:  13; 6HR MAX TEMP:  18; 6HR PCP:  0.14;

INTRNTL FALLS  CLOUDY    16  12  84 NE6       29.54R FOG     WCI   7
6HR MIN TEMP:  14; 6HR MAX TEMP:  16; 6HR PCP:  0.03;

ELY            LGT SNOW  18  12  79 E6        29.46R WCI   9
CLOQUET        LGT SNOW  18  14  86 E5        29.41R WCI  11
WHEATON        CLOUDY    36  32  87 NW25G32   29.57R
BRAINERD       LGT SNOW  22  18  85 N7        29.42R FOG     WCI  13
6HR MIN TEMP:  21; 6HR MAX TEMP:  22; 6HR PCP:  0.01;

HIBBING        CLOUDY    17  13  84 NE3       29.45R
6HR MIN TEMP:  11; 6HR MAX TEMP:  17; 6HR PCP: TRACE;

ALEXANDRIA     CLOUDY    34  32  92 NW18G29   29.44R WCI  23
6HR MIN TEMP:  29; 6HR MAX TEMP:  35; 6HR PCP:  0.02;

SAINT CLOUD    MOCLDY    24  22  91 N8        29.38R WCI  15
6HR MIN TEMP:  21; 6HR MAX TEMP:  24;

MINNEAPOLIS    CLOUDY    30  26  85 N5        29.36R
6HR MIN TEMP:  24; 6HR MAX TEMP:  30;

$$

  *****  WEATHER ACROSS SOUTH DAKOTA  *****

CITY           SKY/WX    TMP DP  RH WIND       PRES   REMARKS
SIOUX FALLS    LGT RAIN  45  32  60 NW39G55   29.56R
6HR MIN TEMP:  35; 6HR MAX TEMP:  47; 6HR PCP: TRACE;

BROOKINGS      MIX PCPN  37  34  89 NW29G38   29.54R
WATERTOWN      CLOUDY    35  34  96 NW24G36   29.56R WCI  23
6HR MIN TEMP:  35; 6HR MAX TEMP:  43; 6HR PCP:  0.02;

HURON          FAIR      42  33  70 NW25G38   29.66R
6HR MIN TEMP:  42; 6HR MAX TEMP:  50; 6HR PCP: TRACE;

SISSETON         N/A     37  34  89 NW35G46   29.56R
ABERDEEN       FAIR      38  32  79 NW26G36   29.68R
6HR MIN TEMP:  38; 6HR MAX TEMP:  47; 6HR PCP:  0.02;

MITCHELL       CLOUDY    47  32  56 NW41G55   29.67R
PIERRE         FAIR      43  28  55 NW28G38   29.81R
6HR MIN TEMP:  43; 6HR MAX TEMP:  53;

MOBRIDGE       FAIR      41  29  62 NW28G37   29.76R
RAPID CITY     FAIR      44  16  32 NW38G51   29.94R
6HR MIN TEMP:  44; 6HR MAX TEMP:  53;

$$

  *****  SOME WEATHER IN NEARBY STATES *****

CITY           SKY/WX    TMP DP  RH WIND       PRES   REMARKS
GLASGOW MT     FAIR      32  24  72 NW15      30.10R WCI  22
6HR MIN TEMP:  31; 6HR MAX TEMP:  41;

GREAT FALLS MT FAIR      24  13  62 SW9       30.24S WCI  14
6HR MIN TEMP:  24; 6HR MAX TEMP:  36;

CHEYENNE WY    CLOUDY    39   8  27 N14G22    30.12S
6HR MIN TEMP:  35; 6HR MAX TEMP:  46;

SCOTTSBLUFF NE FAIR      35  13  40 NW10      30.07R
6HR MIN TEMP:  32; 6HR MAX TEMP:  43;

OMAHA NE       MOCLDY    47  21  35 W12       29.62S
6HR MIN TEMP:  28; 6HR MAX TEMP:  47;

DES MOINES IA  CLOUDY    39  23  52 W17G24    29.51F
6HR MIN TEMP:  28; 6HR MAX TEMP:  39;

DAVENPORT IA   MOCLDY    31  20  63 S22G29    29.53F WCI  18
6HR MIN TEMP:  26; 6HR MAX TEMP:  31;

CHICAGO IL     CLOUDY    25  12  58 S12       29.68F WCI  14
6HR MIN TEMP:  22; 6HR MAX TEMP:  25;

EAU CLAIRE WI  CLOUDY    21  15  78 E9        29.39F WCI  11
6HR MIN TEMP:  19; 6HR MAX TEMP:  21;

LA CROSSE WI   FAIR      29  22  75 S9        29.40F WCI  20
6HR MIN TEMP:  26; 6HR MAX TEMP:  29;

$$

  *****  SOME NATIONAL WEATHER *****

CITY           SKY/WX    TMP DP  RH WIND       PRES   REMARKS
LA GUARDIA NY  FAIR      22   7  52 W25G31    29.53R WCI   5
6HR MIN TEMP:  22; 6HR MAX TEMP:  30;

RALEIGH NC     FAIR      22  11  62 W3        29.96R
6HR MIN TEMP:  21; 6HR MAX TEMP:  29;

ATLANTA GA     FAIR      29  10  45 NW12      30.04R WCI  19
6HR MIN TEMP:  29; 6HR MAX TEMP:  34;

NEW ORLEANS LA FAIR      37  34  89 CALM      30.18R
6HR MIN TEMP:  34; 6HR MAX TEMP:  48;

OKLAHOMA CITY  FAIR      33  24  69 S10       29.92F WCI  25
6HR MIN TEMP:  32; 6HR MAX TEMP:  40;

ALBUQUERQUE NM FAIR      28   6  39 NW6       30.22S WCI  22
6HR MIN TEMP:  25; 6HR MAX TEMP:  37;

SALT LAKE CITY SNOW      24  23  96 SE3       30.38F VSB 1/2
6HR MIN TEMP:  23; 6HR MAX TEMP:  25; 6HR PCP: TRACE;

LOS ANGELES CA FAIR



USA.gov is the U.S. government's official web portal to all federal, state and local government web resources and services.